Aérodrome :
LOGIN :

S'inscrire | Disclaimer

   EN    FR    IT 

 










Légende :    VFR   VFR Marginal   IFR   IFR Intensif   IFR Très Intensif
Visi : 
Plafond : 
>= 8 km
>= 3000ft
5 à 8 km
1000 à 3000 ft
1500m à 5 km
500 à 1000 ft
800 à 1500m
200 à 500 ft
< 800m
< 200 ft
Symboles :   Orages  Brouillard  Fortes neiges  Fortes précipitations  Vent > 20 kt
SIGMETs :   Divers  Orages  Givrage  Turbulence  Onde Orograph.  Cendres Volcan.






- Altitude de l'aérodrome : 23 ft
- Code IATA : XFW


EDHI - Hamburg Finkenwerder

DERNIER METAR :
  • 261150Z AUTO 15008KT 9999 // BKN080/// 23/15 Q1015

METARs EXPIRÉS :
  • 261120Z AUTO 13007KT 060V180 9999 // FEW079/// 22/14 Q1015
  • 261050Z AUTO 13007KT 090V170 9999 // NCD 22/16 Q1015
  • 261020Z AUTO 12007KT 070V160 9999 // NCD 22/17 Q1015
  • 260950Z AUTO 12006KT 070V160 9999 // NCD 21/16 Q1015
  • 260920Z AUTO 12007KT 070V150 9999 // NCD 20/15 Q1015

Prévision TAF périmée.



MET'MAP, la Météo Aéronautique d'un coup d'oeil ! - Copyright ORBIFLY Décembre 2007 - Disclaimer

ORBIFLY MET'MAP TEAM :

Programmation & Développement : Alexandra Zaïnal
Sur une idée originale de : Baudouin d'Aumeries
Assistance à la programmation : Marc-Olivier Méhu
Soutien technique & logistique : Manuel Goepfert

Contact : metmap@orbifly.com




SOURCES & CREDITS :

   NOAA